ATLAS 5 CENTAUR DEB, 53520

Orbit data source: Space-Track

ATLAS 5 CENTAUR DEB, 53520 is space debris in HEO originally from a launch on Wed, 17 Oct 2018 UTC launched from the Air Force Eastern Test Range (AFETR). Debris objects in space refer to the collection of defunct objects orbiting the Earth. Examples of debris include non-operational satellites, rocket bodies, and fragments generated from explosions, collisions, or faulty payload assembly.

Loading next visibility...
Identifier
53520, 2018-079HB
Orbit
HEO
Country
Flag of USUS
Related business
Flag of USUnited Launch Alliance/Lockheed Martin (US)
Manufacturer
ULA Decatur
Mission
Spacecraft
Bus & Motor
Unknown
Mass
Unknown
Launch date (UTC)
2018-10-17 (8 years ago)
Launch vehicle
Unknown
Launch site
Air Force Eastern Test Range (AFETR)
Object type
Payload
Rocket body
Debris
Shape & HBR
Unknown shape, 1.1 m
Radar Cross Section
Medium (>0.1 m² and <1 m²)

Expand to show TLE details & history
Last TLE update: 1 day ago

TLE from 1 day ago
0 ATLAS 5 CENTAUR DEB
1 53520U 18079HB  26222.08849130 -.00000194  00000-0  00000+0 0  9991
2 53520  13.6379  31.2646 4672335 317.6880  14.2746  1.80103395 31504
Epoch: 2026-08-10T02:07Z
TLE epoch observation values (Epoch: 2026-08-10T02:07:25.648Z)
Latitude
-0.00006°
Longitude
40.87976°
Altitude
10,202.323 km
Speed
5.841 km/s
True Right ascension
02h 05m 15s
True Declination
0° 00' 00"
Sunlit
Object was in daylight at epoch
Visualization orbit readout
Latitude
Unknown
Longitude
Unknown
Altitude
Unknown
Speed
Unknown
Apparent Right ascension
Unknown
Apparent Declination
Unknown
Sunlit
N/A
Visualization observer readout
Local Sidereal Time
16:39:33
Azimuth
Unknown
Elevation
Unknown
Doppler factor
Unknown
Orbital elements
Apogee altitude
35,493.303 km
Perigee altitude
8,825.783 km
Semi-major axis
28,537.68 km
Eccentricity
0.46723
Inclination
13.6379°
RAAN
31.2646°
Arg. of periapsis
317.688°
True anomaly
41.95291°
Mean anomaly
14.2746°
Eccentric anomaly
26.01727°
Mean motion
0.45021 °/min
Orbital period
799.63 mins
BSTAR
0
Loading maneuver chart data...
Computing Atmospheric mass density...

Documentation

Showing up to 5 results
|